カタログに戻る

SL-8 R/B

運用中PO
NORAD 13003·ROCKET BODY·🇷🇺 Russia

打ち上げ Dec 17, 1981 から Plesetsk Cosmodrome

Loading…

次のパス (今後24時間)

TLE

最新Source: Space-Track

元期: Sep 14, 2026, 18:37 UTC

1 13003U 81120G   26257.77624991 -.00000058  00000-0 -91058-3 0  9997
2 13003  82.9481 263.2785 0082395  14.4717 158.5775 11.91543301946088

AllMySatでSL-8 R/Bをリアルタイム追跡

Download on the App Store